| time (UTC) | temp C | wind direction | speed KPH | gust KPH | rain 1hr cm | rain 24hr cm | rain mn cm | humidity % | barometer mb |
| 20260505152516 | 13 | 0.0 | 0.0 | 0.00 | 0.00 | 0.00 | 100 | 1015.8 | |
| 20260505151516 | 13 | 0.0 | 0.0 | 0.00 | 0.00 | 0.00 | 100 | 1015.8 | |
| 20260505150515 | 13 | 0.0 | 0.0 | 0.00 | 0.00 | 0.00 | 100 | 1015.6 | |
| 20260505140515 | 13 | 0.0 | 0.0 | 0.00 | 0.00 | 0.00 | 100 | 1015.2 | |
| 20260505124516 | 13 | 0.0 | 0.0 | 0.00 | 0.00 | 0.00 | 100 | 1014.6 | |
| 20260505123515 | 13 | 0.0 | 0.0 | 0.00 | 0.00 | 0.00 | 100 | 1014.6 | |
| 20260505122515 | 13 | 0.0 | 0.0 | 0.00 | 0.00 | 0.00 | 100 | 1014.4 | |
| 20260505121515 | 13 | 0.0 | 0.0 | 0.00 | 0.00 | 0.00 | 100 | 1014.4 | |
| 20260505120515 | 13 | 0.0 | 0.0 | 0.00 | 0.00 | 0.00 | 100 | 1014.4 | |
| 20260505115515 | 13 | 0.0 | 1.6 | 0.00 | 0.00 | 0.00 | 100 | 1014.3 | |
| 20260505114517 | 13 | 0.0 | 0.0 | 0.00 | 0.00 | 0.00 | 100 | 1014.3 | |
| 20260505113517 | 13 | 0.0 | 0.0 | 0.00 | 0.03 | 0.00 | 100 | 1014.2 | |
| 20260505112517 | 13 | 0.0 | 0.0 | 0.00 | 0.03 | 0.00 | 100 | 1014.3 | |
| 20260505111517 | 13 | 0.0 | 0.0 | 0.00 | 0.03 | 0.00 | 100 | 1014.2 | |
| 20260505110517 | 13 | 0.0 | 1.6 | 0.00 | 0.03 | 0.00 | 100 | 1014.2 | |
| 20260505101517 | 13 | 0.0 | 0.0 | 0.00 | 0.03 | 0.00 | 100 | 1013.9 | |
| 20260505100517 | 13 | 0.0 | 3.2 | 0.00 | 0.03 | 0.00 | 100 | 1014.0 | |
| 20260505095537 | 13 | 0.0 | 0.0 | 0.00 | 0.03 | 0.00 | 100 | 1013.9 | |
| 20260505094517 | 12 | 0.0 | 0.0 | 0.00 | 0.03 | 0.00 | 100 | 1013.7 | |
| 20260505093517 | 12 | 0.0 | 3.2 | 0.00 | 0.03 | 0.00 | 100 | 1013.7 | |
| 20260505092517 | 12 | 0.0 | 0.0 | 0.00 | 0.03 | 0.00 | 100 | 1013.6 | |
| 20260505091517 | 12 | 0.0 | 1.6 | 0.00 | 0.03 | 0.00 | 100 | 1013.6 | |
| 20260505090517 | 12 | 0.0 | 0.0 | 0.00 | 0.03 | 0.00 | 100 | 1013.6 | |
| 20260505085517 | 12 | 0.0 | 0.0 | 0.00 | 0.03 | 0.00 | 100 | 1013.5 | |
| 20260505084516 | 12 | 0.0 | 1.6 | 0.00 | 0.03 | 0.00 | 100 | 1013.5 | |
| 20260505083517 | 12 | 0.0 | 0.0 | 0.00 | 0.03 | 0.00 | 100 | 1013.3 | |
| 20260505082516 | 12 | 0.0 | 1.6 | 0.00 | 0.03 | 0.00 | 100 | 1013.3 | |
| 20260505081517 | 12 | 0.0 | 0.0 | 0.00 | 0.03 | 0.00 | 100 | 1013.3 | |
| 20260505080516 | 12 | 0.0 | 0.0 | 0.00 | 0.03 | 0.00 | 100 | 1013.3 | |
| 20260505075516 | 12 | 0.0 | 0.0 | 0.00 | 0.03 | 0.00 | 100 | 1013.4 | |
| 20260505074517 | 12 | 0.0 | 0.0 | 0.00 | 0.03 | 0.00 | 100 | 1013.3 | |
| 20260505073516 | 12 | 0.0 | 0.0 | 0.00 | 0.03 | 0.00 | 100 | 1013.3 | |
| 20260505072537 | 12 | 0.0 | 0.0 | 0.00 | 0.03 | 0.00 | 100 | 1013.1 | |
| 20260505071517 | 12 | 0.0 | 0.0 | 0.00 | 0.03 | 0.00 | 100 | 1013.1 | |
| 20260505070557 | 12 | 0.0 | 0.0 | 0.00 | 0.03 | 0.00 | 100 | 1012.9 | |
| 20260505065517 | 12 | 0.0 | 0.0 | 0.00 | 0.03 | 0.03 | 100 | 1012.7 | |
| 20260505064537 | 12 | 0.0 | 3.2 | 0.00 | 0.03 | 0.03 | 100 | 1012.6 | |
| 20260505063516 | 12 | 0.0 | 1.6 | 0.00 | 0.03 | 0.03 | 100 | 1012.4 | |
| 20260505062517 | 13 | 0.0 | 1.6 | 0.00 | 0.03 | 0.03 | 100 | 1012.3 | |
| 20260505061516 | 13 | 0.0 | 0.0 | 0.00 | 0.03 | 0.03 | 100 | 1012.1 | |
| 20260505060537 | 13 | 0.0 | 3.2 | 0.00 | 0.03 | 0.03 | 100 | 1012.1 | |
| 20260505055517 | 13 | 0.0 | 3.2 | 0.00 | 0.03 | 0.03 | 100 | 1012.1 | |
| 20260505054516 | 13 | 0.0 | 3.2 | 0.00 | 0.03 | 0.03 | 100 | 1012.0 | |
| 20260505053536 | 13 | 0.0 | 3.2 | 0.00 | 0.03 | 0.03 | 100 | 1012.0 | |
| 20260505052517 | 13 | 0.0 | 4.8 | 0.00 | 0.03 | 0.03 | 100 | 1011.8 | |
| 20260505051536 | 13 | 135 | 1.6 | 12.9 | 0.00 | 0.03 | 0.03 | 100 | 1011.8 |
| 20260505050556 | 13 | 158 | 1.6 | 8.0 | 0.00 | 0.03 | 0.03 | 100 | 1011.7 |
| 20260505041516 | 14 | 158 | 1.6 | 4.8 | 0.00 | 0.03 | 0.03 | 100 | 1011.5 |
| 20260505040516 | 15 | 135 | 1.6 | 8.0 | 0.00 | 0.03 | 0.03 | 100 | 1011.3 |
| 20260505035516 | 15 | 315 | 1.6 | 8.0 | 0.00 | 0.03 | 0.03 | 100 | 1011.2 |
| 20260505034516 | 15 | 135 | 1.6 | 8.0 | 0.00 | 0.03 | 0.03 | 100 | 1011.1 |
| 20260505033516 | 15 | 203 | 1.6 | 12.9 | 0.00 | 0.03 | 0.03 | 100 | 1010.8 |
| 20260505032516 | 16 | 203 | 1.6 | 6.4 | 0.00 | 0.03 | 0.03 | 100 | 1010.7 |
| 20260505031516 | 16 | 0.0 | 6.4 | 0.00 | 0.03 | 0.03 | 100 | 1010.7 | |
| 20260505030516 | 17 | 135 | 1.6 | 8.0 | 0.00 | 0.03 | 0.03 | 100 | 1010.7 |
| 20260505025516 | 17 | 270 | 1.6 | 11.3 | 0.00 | 0.03 | 0.03 | 100 | 1010.5 |
| 20260505024516 | 17 | 270 | 1.6 | 4.8 | 0.00 | 0.03 | 0.03 | 100 | 1010.4 |
| 20260505023516 | 18 | 45 | 1.6 | 8.0 | 0.00 | 0.03 | 0.03 | 100 | 1010.2 |
| 20260505022516 | 18 | 113 | 1.6 | 6.4 | 0.00 | 0.03 | 0.03 | 100 | 1010.2 |
| 20260505021516 | 19 | 135 | 3.2 | 11.3 | 0.00 | 0.03 | 0.03 | 100 | 1010.1 |
| 20260505020536 | 20 | 135 | 1.6 | 11.3 | 0.00 | 0.03 | 0.03 | 100 | 1010.0 |
| 20260505015616 | 20 | 135 | 1.6 | 4.8 | 0.00 | 0.03 | 0.03 | 100 | 1009.9 |
| 20260505014516 | 20 | 248 | 1.6 | 8.0 | 0.00 | 0.03 | 0.03 | 100 | 1009.9 |
| 20260505013516 | 21 | 0.0 | 4.8 | 0.00 | 0.03 | 0.03 | 100 | 1010.0 | |
| 20260505012516 | 21 | 203 | 1.6 | 4.8 | 0.00 | 0.03 | 0.03 | 100 | 1009.9 |
| 20260505011516 | 21 | 315 | 1.6 | 9.7 | 0.00 | 0.03 | 0.03 | 100 | 1009.9 |
| 20260505010536 | 22 | 113 | 1.6 | 8.0 | 0.00 | 0.03 | 0.03 | 100 | 1009.9 |
| 20260505005536 | 23 | 135 | 1.6 | 8.0 | 0.00 | 0.03 | 0.03 | 100 | 1010.0 |
| 20260505004516 | 23 | 23 | 1.6 | 4.8 | 0.00 | 0.03 | 0.03 | 100 | 1010.0 |
| 20260505003515 | 24 | 315 | 1.6 | 8.0 | 0.00 | 0.03 | 0.03 | 100 | 1009.9 |
| 20260505002516 | 25 | 158 | 1.6 | 6.4 | 0.00 | 0.03 | 0.03 | 100 | 1009.9 |
| 20260505001516 | 25 | 315 | 1.6 | 9.7 | 0.00 | 0.03 | 0.03 | 100 | 1009.8 |
| 20260505000556 | 25 | 338 | 1.6 | 6.4 | 0.00 | 0.03 | 0.03 | 100 | 1009.7 |
| 20260504235515 | 25 | 293 | 1.6 | 4.8 | 0.00 | 0.03 | 0.03 | 100 | 1009.6 |
| 20260504234515 | 26 | 0 | 1.6 | 6.4 | 0.00 | 0.03 | 0.03 | 100 | 1009.8 |
| 20260504233516 | 26 | 135 | 1.6 | 8.0 | 0.00 | 0.03 | 0.03 | 100 | 1009.9 |
| 20260504232516 | 26 | 203 | 1.6 | 11.3 | 0.00 | 0.03 | 0.03 | 100 | 1009.8 |
| 20260504231516 | 26 | 338 | 1.6 | 6.4 | 0.00 | 0.03 | 0.03 | 100 | 1009.9 |
| 20260504230515 | 26 | 203 | 1.6 | 8.0 | 0.00 | 0.03 | 0.03 | 100 | 1009.9 |
| 20260504225515 | 26 | 338 | 1.6 | 8.0 | 0.00 | 0.03 | 0.03 | 100 | 1010.1 |
| 20260504224515 | 26 | 135 | 1.6 | 6.4 | 0.00 | 0.03 | 0.03 | 100 | 1010.1 |
| 20260504223515 | 26 | 135 | 3.2 | 12.9 | 0.00 | 0.03 | 0.03 | 100 | 1010.2 |
| 20260504222515 | 26 | 0.0 | 3.2 | 0.00 | 0.03 | 0.03 | 100 | 1010.3 | |
| 20260504221515 | 25 | 315 | 3.2 | 6.4 | 0.00 | 0.03 | 0.03 | 100 | 1010.4 |
| 20260504220517 | 25 | 135 | 1.6 | 6.4 | 0.00 | 0.03 | 0.03 | 100 | 1010.3 |
| 20260504215517 | 25 | 315 | 1.6 | 8.0 | 0.00 | 0.03 | 0.03 | 100 | 1010.4 |
| 20260504214537 | 25 | 135 | 1.6 | 8.0 | 0.00 | 0.03 | 0.03 | 100 | 1010.4 |
| 20260504213517 | 26 | 158 | 1.6 | 6.4 | 0.00 | 0.03 | 0.03 | 100 | 1010.3 |
| 20260504212517 | 25 | 0.0 | 3.2 | 0.00 | 0.03 | 0.03 | 100 | 1010.5 | |
| 20260504211517 | 24 | 180 | 1.6 | 4.8 | 0.00 | 0.03 | 0.03 | 100 | 1010.7 |
| 20260504210517 | 25 | 158 | 1.6 | 11.3 | 0.00 | 0.03 | 0.03 | 100 | 1010.8 |
| 20260504205517 | 24 | 0.0 | 3.2 | 0.00 | 0.03 | 0.03 | 100 | 1010.9 | |
| 20260504204517 | 24 | 135 | 1.6 | 8.0 | 0.00 | 0.03 | 0.03 | 100 | 1010.8 |
| 20260504203517 | 24 | 135 | 1.6 | 9.7 | 0.00 | 0.03 | 0.03 | 100 | 1010.9 |
| 20260504202517 | 23 | 135 | 1.6 | 4.8 | 0.00 | 0.03 | 0.03 | 100 | 1010.9 |
| 20260504201537 | 23 | 158 | 1.6 | 8.0 | 0.00 | 0.03 | 0.03 | 100 | 1010.8 |
| 20260504200517 | 23 | 158 | 1.6 | 8.0 | 0.00 | 0.03 | 0.03 | 100 | 1011.1 |
| 20260504195517 | 23 | 0.0 | 3.2 | 0.00 | 0.03 | 0.03 | 100 | 1011.0 | |
| 20260504194517 | 22 | 135 | 1.6 | 6.4 | 0.00 | 0.03 | 0.03 | 100 | 1011.0 |
| 20260504193537 | 22 | 135 | 1.6 | 6.4 | 0.00 | 0.03 | 0.03 | 100 | 1011.0 |
| 20260504192517 | 22 | 135 | 1.6 | 11.3 | 0.00 | 0.03 | 0.03 | 100 | 1011.1 |
| 20260504191537 | 22 | 135 | 1.6 | 6.4 | 0.00 | 0.03 | 0.03 | 100 | 1011.0 |
| 20260504190517 | 22 | 158 | 1.6 | 9.7 | 0.00 | 0.03 | 0.03 | 100 | 1011.4 |
| 20260504185517 | 22 | 180 | 1.6 | 6.4 | 0.00 | 0.03 | 0.03 | 100 | 1011.5 |
| 20260504184517 | 22 | 135 | 1.6 | 8.0 | 0.00 | 0.03 | 0.03 | 100 | 1011.6 |
| 20260504183517 | 21 | 0.0 | 4.8 | 0.00 | 0.03 | 0.03 | 100 | 1011.3 | |
| 20260504182517 | 21 | 135 | 1.6 | 6.4 | 0.00 | 0.03 | 0.03 | 100 | 1011.5 |
| 20260504181517 | 20 | 135 | 1.6 | 6.4 | 0.00 | 0.03 | 0.03 | 100 | 1011.6 |
| 20260504180536 | 20 | 135 | 1.6 | 9.7 | 0.00 | 0.03 | 0.03 | 100 | 1011.4 |
| 20260504175557 | 19 | 315 | 1.6 | 6.4 | 0.00 | 0.03 | 0.03 | 100 | 1011.4 |
| 20260504174516 | 18 | 0.0 | 3.2 | 0.00 | 0.03 | 0.03 | 100 | 1011.5 | |
| 20260504173516 | 18 | 0.0 | 4.8 | 0.00 | 0.03 | 0.03 | 100 | 1011.7 | |
| 20260504172517 | 18 | 158 | 1.6 | 8.0 | 0.00 | 0.03 | 0.03 | 100 | 1011.6 |
| 20260504171516 | 18 | 135 | 1.6 | 8.0 | 0.00 | 0.03 | 0.03 | 100 | 1011.6 |
| 20260504170516 | 17 | 180 | 1.6 | 4.8 | 0.00 | 0.03 | 0.03 | 100 | 1011.7 |